Regional Weather Roundup
Issued by NWS

Home | Current Version | Previous Version | Text Only | Print | Product List | Glossary On
Versions: 1 2 3 4 5 6 7 8 9 10 11 12 13 14 15 16 17 18 19 20 21 22 23 24 25 26 27 28 29 30 31 32 33 34 35 36 37 38 39 40 41 42 43 44 45 46 47 48 49 50
000
ASUS43 KBIS 011459
RWRND

NORTH DAKOTA REGIONAL WEATHER ROUNDUP
NATIONAL WEATHER SERVICE BISMARCK ND
1000 AM CDT WED OCT 01 2014

NOTE: "FAIR" INDICATES FEW OR NO CLOUDS BELOW 12,000 FEET WITH NO
SIGNIFICANT WEATHER AND/OR OBSTRUCTIONS TO VISIBILITY.


NDZ001>003-009>011-017-011600-
NORTHWEST NORTH DAKOTA

CITY           SKY/WX    TMP DP  RH WIND       PRES   REMARKS
WILLISTON      CLOUDY    53  49  86 W20G28    29.67R
MINOT          CLOUDY    54  52  93 SW13G22   29.56R FOG
MINOT AFB      CLOUDY    55  55 100 W13       29.54R
$$

NDZ018>021-031>035-040>046-011600-
SOUTHWEST NORTH DAKOTA

CITY           SKY/WX    TMP DP  RH WIND       PRES   REMARKS
BISMARCK       PTSUNNY   58  50  75 W18G28    29.68R
GARRISON         N/A     55  51  86 W17G28    29.60R
HETTINGER ARPT CLOUDY    51  47  86 W22G28    29.76R
$$

NDZ004>008-012>016-024-026-027-054-011600-
NORTHEAST NORTH DAKOTA

CITY           SKY/WX    TMP DP  RH WIND       PRES   REMARKS
GRAND FORKS    PTSUNNY   61  53  75 S18G26    29.58S
DEVILS LAKE    CLOUDY    57  50  77 SW17      29.54R
$$

NDZ022-023-025-028>030-036>039-047>053-011600-
SOUTHEAST NORTH DAKOTA

CITY           SKY/WX    TMP DP  RH WIND       PRES   REMARKS
FARGO          PTSUNNY   63  56  78 S16       29.65R
$$



USA.gov is the U.S. government's official web portal to all federal, state and local government web resources and services.